Theta_e
312 312 313 313 314 314 314 315 315 315 314 314 314 317 316 315 313 314 315 316 316 316 316 316 316 316 318 320 319 318 322 324 323 322 322 318 318 315 315 317 314 314 315 315 312
310 310 310 310 310 310 311 311 312 313 313 313 313 314 316 316 315 314 315 316 316 316 315 317 318 317 320 321 320 321 324 324 321 321 320 319 318 318 315 316 316 315 313 313 310
312 312 313 313 312 312 311 310 310 310 311 311 312 313 314 316 316 318 317 315 315 315 315 317 318 318 320 320 320 321 322 321 320 318 317 318 317 317 316 318 318 318 316 312 309
313 313 313 313 313 313 313 312 312 311 310 310 310 311 313 315 319 317 316 315 315 314 315 317 317 318 320 322 320 320 320 319 319 317 316 317 317 317 316 318 318 318 318 315 312
314 314 314 314 314 314 314 313 313 312 311 310 309 310 312 316 317 315 316 315 314 313 313 316 319 320 321 321 319 319 321 318 317 316 316 315 315 317 317 317 317 315 315 313 312
314 314 314 314 314 314 314 314 314 313 312 311 310 309 311 315 315 314 316 315 314 312 312 315 318 319 318 318 319 318 318 318 317 317 316 315 317 315 318 317 317 316 313 312 311
314 314 314 315 315 315 315 314 314 314 313 312 310 309 313 314 313 313 313 315 313 312 312 312 315 317 319 320 317 316 317 319 318 317 317 315 317 317 317 315 316 316 314 312 312
312 314 314 315 315 315 315 315 314 314 313 312 310 311 315 314 312 313 313 315 314 313 312 312 314 316 317 315 316 317 318 319 320 317 315 315 319 319 318 316 315 315 315 313 312
306 307 308 311 313 314 314 314 314 314 313 311 311 312 315 314 313 313 315 314 313 312 311 312 314 317 315 318 320 320 320 320 320 316 316 316 319 319 317 315 315 316 316 315 313
309 307 307 306 307 310 312 313 313 313 312 311 313 315 314 314 314 315 315 313 311 311 313 314 316 318 319 319 320 319 320 319 319 319 316 317 316 318 317 317 316 315 315 315 315
311 311 309 307 306 307 308 311 313 313 310 315 317 317 314 314 315 314 314 312 311 313 316 316 317 319 319 320 319 319 319 318 318 317 317 318 317 318 318 317 317 316 316 316 314
310 309 310 309 306 305 307 309 309 309 310 311 310 311 313 314 315 314 314 312 313 315 316 317 317 318 318 318 318 318 318 318 318 318 314 317 317 318 317 317 316 315 315 315 315
318 315 308 308 308 305 307 307 308 308 313 313 311 311 312 311 313 315 314 313 314 316 316 317 317 315 316 317 317 317 317 318 318 318 313 314 315 316 316 315 314 314 314 314 314
319 319 317 308 307 307 308 307 309 311 310 312 310 312 310 312 311 312 313 313 314 315 315 316 316 316 316 315 316 317 317 318 318 318 318 314 317 318 317 317 316 314 314 315 315
320 318 318 313 307 309 308 310 310 306 316 311 310 309 313 312 310 309 310 310 314 314 315 315 316 314 315 316 316 316 312 314 316 317 317 316 317 316 315 315 314 314 314 315 315
322 319 318 316 310 307 308 310 309 310 314 311 311 312 314 312 310 308 309 309 310 313 314 314 310 313 315 310 311 310 312 313 312 314 317 317 317 317 317 314 314 313 313 314 313
320 321 319 316 314 309 309 309 309 309 310 314 313 313 313 315 313 310 310 310 313 314 315 316 315 313 310 313 309 311 315 318 322 321 320 318 317 317 316 315 314 314 314 313 311
322 322 319 317 317 312 309 310 308 311 313 311 312 313 314 315 314 312 313 313 312 314 315 317 317 314 310 314 317 312 316 320 324 320 320 316 316 316 316 315 314 313 313 312 309
323 322 318 316 316 314 310 311 312 313 313 312 313 312 313 314 314 314 314 315 315 313 315 315 315 308 309 308 313 313 313 315 319 319 320 315 316 317 315 314 313 312 310 310 309
319 318 318 318 317 312 309 309 313 313 311 311 311 312 313 314 313 313 314 315 315 314 314 315 316 312 304 305 306 310 310 314 315 320 319 317 319 320 318 315 313 312 311 311 311
319 317 317 317 316 311 308 309 312 310 309 308 310 312 313 314 314 313 313 314 314 314 313 314 315 313 306 308 312 307 310 309 310 316 320 320 318 315 315 316 314 313 311 311 312
317 315 315 315 311 309 307 308 310 312 308 308 308 309 310 311 312 311 313 314 313 312 311 312 315 316 315 312 305 309 313 313 314 315 313 315 316 312 313 313 314 312 310 311 310
315 316 313 314 315 307 308 309 309 313 312 309 309 309 308 308 308 310 311 312 311 311 312 310 313 316 315 310 304 308 310 310 313 312 314 316 315 313 313 314 311 310 311 310 310
311 314 308 310 313 313 310 311 312 312 313 311 309 308 308 308 310 309 311 312 311 310 309 310 313 313 313 313 312 312 310 310 310 313 313 313 313 313 313 313 313 313 312 312 311
308 314 310 309 310 312 312 312 313 314 313 312 312 310 311 313 313 311 310 310 309 306 308 310 311 312 312 312 311 311 311 310 309 311 312 313 312 313 313 313 313 312 311 310 310
305 310 307 309 310 310 311 312 313 314 314 314 313 312 311 312 313 317 313 312 312 306 308 309 311 311 311 311 311 311 311 312 312 312 312 311 311 311 311 311 311 311 311 310 310
301 301 299 303 307 310 311 312 312 313 313 314 314 312 313 311 311 312 313 314 312 310 309 308 309 311 312 312 312 312 312 312 312 312 312 313 313 313 314 313 312 312 311 311 311
Wind_Speed
6 6 6 6 7 7 8 8 9 9 8 9 7 6 7 7 7 9 9 9 8 6 4 4 4 5 5 4 4 3 5 7 5 4 2 4 10 4 6 10 8 10 10 10 10
7 7 7 9 9 9 9 9 9 9 9 8 9 8 8 10 12 17 14 11 10 7 6 5 4 6 5 5 4 7 5 5 1 4 4 7 11 8 6 13 18 17 16 19 17
9 9 9 10 10 11 11 11 11 11 11 11 10 9 8 9 10 11 18 15 12 10 7 6 6 8 9 6 7 4 5 2 6 8 6 9 10 12 11 14 18 19 21 22 22
11 11 12 12 12 13 13 13 13 13 12 13 12 10 8 6 6 6 9 16 13 11 8 7 6 5 7 8 8 5 13 9 3 5 4 9 7 9 22 24 8 14 16 23 24
14 14 14 14 14 14 14 15 16 16 15 15 14 12 9 7 13 18 12 15 14 12 9 8 10 9 9 6 6 11 12 8 10 7 11 8 15 13 22 24 22 17 19 20 24
18 17 16 16 17 17 16 16 17 17 17 17 16 14 9 13 14 15 14 17 17 14 10 8 6 6 10 7 8 6 10 12 9 13 11 10 15 6 15 16 24 22 21 21 25
23 22 21 20 20 20 19 18 19 19 18 18 17 14 13 19 18 15 16 18 18 16 11 13 11 5 1 6 6 6 9 12 16 14 6 8 11 18 28 12 14 19 23 23 26
26 27 26 24 24 24 23 21 22 21 20 19 16 11 11 18 18 18 17 16 16 16 16 14 11 7 5 3 5 6 6 11 1 11 6 8 18 11 11 13 16 19 22 24 27
24 25 27 27 27 26 25 23 23 23 21 18 12 8 9 14 14 18 15 12 14 13 12 10 8 6 4 6 11 10 12 16 12 15 4 13 15 4 6 9 18 21 24 26 27
22 23 24 24 26 26 26 25 24 24 19 12 12 6 15 8 10 11 15 14 8 9 5 7 7 8 9 11 14 16 17 15 16 10 13 14 21 23 23 21 27 30 31 31 32
23 24 24 21 21 24 25 19 10 7 8 10 5 7 8 9 9 9 13 14 8 9 11 11 9 16 19 20 22 22 21 23 25 7 11 19 22 25 29 26 30 33 34 33 32
22 23 25 23 19 16 19 9 11 9 11 17 24 27 28 22 7 14 15 13 11 15 16 6 17 22 19 13 16 20 22 26 23 7 7 17 22 22 22 28 34 32 33 30 23
23 25 27 24 19 15 15 17 13 11 8 11 23 16 19 23 14 17 23 12 12 15 18 22 18 1 5 15 15 19 21 22 21 8 12 13 16 16 14 23 27 29 37 29 24
24 26 24 23 11 13 11 12 8 4 7 10 8 6 10 9 7 18 19 12 9 13 18 18 21 20 19 20 18 20 16 19 19 11 11 3 14 12 15 17 14 25 35 26 18
24 25 26 20 10 4 8 5 4 4 10 5 6 5 8 10 4 5 19 11 17 11 7 12 8 7 14 23 11 12 3 4 9 13 17 14 13 15 7 9 13 17 34 26 13
25 24 26 23 13 12 8 5 1 7 14 7 8 8 6 8 3 4 4 4 3 9 13 19 2 5 5 3 3 5 3 5 5 7 11 17 18 8 8 5 5 12 29 12 11
27 27 27 26 9 10 9 8 5 12 4 7 7 8 10 10 9 11 8 11 9 6 11 12 23 6 5 6 4 8 6 6 8 7 17 14 14 16 9 13 14 21 30 8 7
30 31 32 28 22 11 13 6 14 10 25 2 1 5 9 12 8 11 9 10 18 14 5 8 10 18 14 18 6 14 11 6 13 15 25 3 14 11 13 17 22 27 18 13 12
24 36 35 35 27 17 16 13 19 20 19 9 3 10 12 10 6 12 15 13 11 21 13 8 12 3 6 2 6 8 7 3 8 1 9 14 21 15 7 11 17 9 12 19 16
20 26 32 33 32 23 6 24 21 14 9 10 20 16 23 22 13 12 14 8 12 18 21 8 14 8 5 4 3 6 2 5 4 7 17 27 22 14 15 17 11 8 12 23 13
27 11 18 20 23 16 5 13 17 28 31 11 20 23 21 22 21 21 15 12 11 7 17 9 9 6 6 11 15 5 6 6 3 7 11 19 12 7 8 5 8 8 13 17 9
29 5 12 21 11 5 9 12 12 23 9 14 13 18 22 22 23 23 25 21 11 7 8 7 3 11 23 4 3 8 21 18 9 13 8 13 27 7 1 3 4 7 10 10 10
9 14 19 28 9 8 9 19 16 15 12 6 10 12 16 17 15 17 21 18 17 11 9 7 3 5 11 8 4 8 13 11 17 15 26 16 23 13 18 14 4 8 14 17 21
9 4 9 24 17 20 20 23 21 31 25 23 12 12 14 17 19 11 18 15 24 14 6 13 8 13 20 22 5 12 19 17 19 16 25 27 29 39 31 27 27 28 36 30 33
11 7 12 5 14 14 20 15 27 21 24 22 9 24 20 13 19 20 29 30 19 5 4 3 17 21 28 33 34 27 19 15 24 27 22 32 22 26 31 30 29 32 43 41 43
8 6 6 12 23 24 22 17 26 28 25 20 24 23 26 25 24 23 23 18 16 3 13 8 11 19 24 29 30 29 27 32 30 25 29 28 31 29 40 51 39 46 46 37 43
9 13 11 5 5 10 19 29 29 27 35 36 30 23 25 29 42 44 40 25 10 10 13 7 7 11 19 25 24 21 36 34 35 40 34 30 39 39 37 31 30 44 37 35 36
Wind_Direction
328 338 342 344 348 352 354 355 356 359 2 0 346 322 269 267 267 257 253 239 235 234 245 242 269 228 213 236 219 218 250 264 271 264 348 166 209 212 231 224 206 221 241 226 215
319 324 328 332 337 340 340 339 338 337 337 338 338 325 310 272 269 263 247 238 229 229 232 226 244 210 225 237 229 236 252 277 308 261 246 196 226 209 223 224 232 236 232 238 223
305 314 320 324 328 332 334 334 332 328 326 325 323 317 310 298 290 260 247 233 229 229 227 226 222 201 242 240 214 210 251 353 247 243 245 239 226 216 224 247 232 236 233 231 218
296 301 307 312 316 320 322 323 324 324 322 318 316 311 298 284 274 291 247 221 227 228 221 215 199 212 238 223 213 256 248 246 251 229 235 235 255 228 227 236 248 243 242 221 222
289 294 299 304 307 308 312 314 314 315 316 314 311 305 292 255 253 268 256 228 230 230 225 224 232 250 250 235 221 246 273 250 247 231 237 250 241 248 256 250 248 246 235 216 229
287 289 292 297 298 301 304 306 307 308 308 308 307 299 272 255 260 263 248 236 232 231 238 229 260 254 290 261 235 343 280 263 256 244 236 232 258 243 264 250 243 236 238 229 229
288 290 291 293 295 296 298 301 302 304 303 301 298 290 261 256 266 261 246 237 233 232 235 240 247 238 298 260 250 274 279 270 245 239 241 214 250 236 255 251 237 234 236 234 232
284 287 288 289 291 294 296 300 301 302 301 298 292 273 257 264 258 254 243 238 235 237 237 243 237 230 225 250 247 257 252 267 295 186 203 194 268 248 254 208 237 243 243 240 235
286 284 283 286 289 290 293 297 301 302 300 292 278 238 261 260 249 244 232 230 229 228 224 223 211 236 207 236 260 212 264 266 247 191 177 208 267 273 180 237 261 259 256 249 244
288 285 287 287 286 287 290 296 301 299 288 277 247 248 242 241 245 236 223 213 203 203 204 203 217 238 221 227 245 271 266 266 263 198 214 232 251 270 268 268 265 267 266 262 252
296 291 286 285 286 289 292 300 298 283 244 223 213 241 266 242 246 228 210 198 194 204 219 201 222 231 238 230 251 275 282 278 273 266 213 241 253 264 277 276 274 271 273 264 258
315 302 295 292 284 280 284 278 257 262 292 259 251 247 254 260 243 226 201 185 194 220 217 206 232 249 270 286 272 263 263 269 275 273 209 267 267 267 271 268 267 274 273 268 268
318 320 316 306 292 282 274 270 267 269 253 243 245 241 237 239 236 233 202 199 212 230 223 239 250 82 253 251 251 249 252 261 263 273 220 273 272 258 248 253 261 268 266 270 263
309 314 318 319 311 285 285 277 264 278 267 223 200 209 221 198 247 212 202 209 208 243 235 254 262 265 265 255 256 262 268 253 266 273 265 157 285 273 286 267 240 266 276 272 259
300 304 309 319 283 283 274 237 272 295 274 119 157 189 177 193 99 197 196 206 229 201 186 227 226 218 232 245 255 250 341 258 253 256 277 263 269 271 224 265 250 247 262 276 279
290 292 296 305 306 261 233 183 187 250 249 185 153 170 172 205 185 118 180 208 294 241 234 256 105 233 244 109 224 114 255 243 232 260 253 253 239 281 234 205 238 256 263 255 258
280 278 275 280 277 286 208 152 242 233 22 198 206 184 195 193 199 189 172 188 196 188 223 225 227 199 177 204 171 201 212 270 248 228 262 270 263 265 278 254 239 257 265 274 230
272 269 260 256 265 255 193 214 232 225 231 47 1 197 205 179 221 197 196 222 225 240 275 238 245 198 191 218 250 197 215 220 273 270 284 240 265 255 250 239 239 251 258 252 226
274 271 246 243 243 231 187 214 235 228 248 252 206 241 222 218 234 195 214 219 218 200 210 220 247 131 185 157 191 161 204 293 272 215 280 268 259 255 168 199 228 232 238 251 234
271 262 266 255 245 218 203 236 254 237 290 262 226 210 243 229 192 196 212 220 234 202 227 246 266 177 141 163 215 229 110 179 214 275 266 279 281 269 265 235 222 232 238 260 244
273 240 256 248 233 189 205 229 264 264 268 266 256 258 249 250 239 230 238 243 203 207 214 243 221 223 145 203 207 185 222 222 287 240 258 278 273 74 111 148 177 215 240 257 253
254 240 223 195 177 187 202 212 232 267 283 265 267 265 267 264 258 254 245 242 198 162 197 213 279 234 240 276 332 265 232 217 221 226 231 251 273 70 211 251 148 157 220 233 239
248 247 213 205 222 211 233 232 227 236 231 254 259 268 288 284 289 275 273 267 264 191 191 170 217 244 264 243 167 225 227 244 241 252 245 239 256 177 253 264 237 217 241 249 262
259 230 199 215 215 211 217 227 231 235 240 226 221 249 258 254 250 265 261 266 252 229 237 168 204 232 240 245 246 216 228 225 229 236 246 242 259 275 268 275 276 278 277 280 274
245 248 209 196 240 222 218 221 230 235 218 209 229 217 219 237 245 239 245 257 256 117 36 244 244 240 245 259 262 268 268 219 225 236 242 258 251 260 276 272 276 282 283 285 287
268 280 310 290 217 219 223 224 228 233 232 230 227 224 223 227 216 248 231 244 233 155 232 203 249 248 256 253 258 260 260 254 255 247 247 251 265 259 261 272 276 277 279 289 285
257 282 322 257 283 264 231 236 234 234 242 240 241 237 240 228 231 241 250 257 233 203 209 196 217 226 241 241 248 252 241 247 255 258 252 253 252 259 266 258 265 275 282 279 280